Weather History for KVCB - March, 2013

Change the Weather History Date:

Friday, March 8, 2013

  Actual Average Record
Temperature  
Mean Temperature 51 °F -  
Max Temperature 66 °F 66 °F 79 °F (1953)
Min Temperature 36 °F 42 °F 30 °F (1969)
Degree Days  
Heating Degree Days 14    
Growing Degree Days 1 (Base 50)    
Moisture  
Dew Point 36 °F    
Average Humidity 64    
Maximum Humidity 93    
Minimum Humidity 25    
Precipitation  
Precipitation 0.00 in - - ()
Sea Level Pressure  
Sea Level Pressure 29.88 in    
Wind  
Wind Speed 2 mph (WSW)    
Max Wind Speed 13 mph    
Max Gust Speed 22 mph    
Visibility 10 miles    
Events      
Averages and records for this station are not official NWS values.
T = Trace of Precipitation, MM = Missing Value Source: NWS Daily Summary

Daily Weather History Graph

Daily Weather History Graph

Search for Another Location

Airport or City:

Trip Planner

Search our weather history database for the weather conditions in past years. The results will help you decide how hot, cold, wet, or windy it might be!

Date:

Astronomy

Mar. 08, 2013 Rise Set
Actual Time 6:29 AM PST 6:08 PM PST
Civil Twilight 6:02 AM PST 6:34 PM PST
Nautical Twilight 5:32 AM PST 7:05 PM PST
Astronomical Twilight 5:01 AM PST 7:36 PM PST
Moon 4:15 AM PST (3/8) 3:11 PM PST (3/8)
Length of Visible Light 12h 32m
Length of Day
11h 39m
Waning Crescent, 11% of the Moon is Illuminated
Mar 8
Waning Crescent
Mar 11
New
Mar 19
First Quarter
Mar 27
Full
Apr 2
Last Quarter

Hourly Weather History & Observations

Time (PST) Temp. Windchill Dew Point Humidity Pressure Visibility Wind Dir Wind Speed Gust Speed Precip Events Conditions
12:53 AM 39.0 °F - 35.1 °F 86% 29.87 in 10.0 mi Calm Calm - N/A   Clear
1:53 AM 37.9 °F - 35.1 °F 89% 29.87 in 10.0 mi Calm Calm - N/A   Clear
2:53 AM 37.0 °F - 34.0 °F 89% 29.85 in 10.0 mi Calm Calm - N/A   Clear
3:53 AM 36.0 °F - 34.0 °F 93% 29.84 in 10.0 mi Calm Calm - N/A   Clear
4:53 AM 37.0 °F - 34.0 °F 89% 29.85 in 10.0 mi Calm Calm - N/A   Clear
5:53 AM 36.0 °F - 34.0 °F 93% 29.85 in 10.0 mi Calm Calm - N/A   Clear
6:53 AM 37.0 °F - 35.1 °F 93% 29.86 in 10.0 mi Calm Calm - N/A   Clear
7:53 AM 45.0 °F 43.5 °F 37.0 °F 74% 29.86 in 10.0 mi ENE 3.5 mph - N/A   Clear
8:53 AM 50.0 °F - 37.0 °F 61% 29.87 in 10.0 mi Calm Calm - N/A   Clear
9:53 AM 57.0 °F - 36.0 °F 45% 29.88 in 10.0 mi Variable 3.5 mph - N/A   Clear
10:53 AM 59.0 °F - 30.0 °F 33% 29.87 in 10.0 mi NW 3.5 mph - N/A   Clear
11:53 AM 61.0 °F - 30.9 °F 32% 29.87 in 10.0 mi Variable 3.5 mph - N/A   Clear
12:53 PM 64.0 °F - 35.1 °F 34% 29.84 in 10.0 mi Calm Calm - N/A   Clear
1:53 PM 64.9 °F - 28.0 °F 25% 29.83 in 10.0 mi NW 6.9 mph - N/A   Clear
2:53 PM 66.9 °F - 36.0 °F 32% 29.83 in 10.0 mi WSW 11.5 mph - N/A   Scattered Clouds
3:53 PM 64.9 °F - 37.9 °F 37% 29.83 in 10.0 mi SW 12.7 mph 21.9 mph N/A   Mostly Cloudy
4:53 PM 62.1 °F - 39.9 °F 44% 29.84 in 10.0 mi WSW 11.5 mph 19.6 mph N/A   Clear
5:53 PM 57.9 °F - 42.1 °F 56% 29.86 in 10.0 mi SW 9.2 mph - N/A   Clear
6:53 PM 57.0 °F - 41.0 °F 55% 29.90 in 10.0 mi Variable 3.5 mph - N/A   Clear
7:53 PM 53.1 °F - 39.9 °F 61% 29.92 in 10.0 mi Variable 4.6 mph - N/A   Clear
8:53 PM 50.0 °F - 42.1 °F 74% 29.95 in 10.0 mi South 5.8 mph - N/A   Clear
9:53 PM 46.0 °F 44.8 °F 39.9 °F 79% 29.97 in 10.0 mi WSW 3.5 mph - N/A   Clear
10:53 PM 44.1 °F - 39.0 °F 82% 30.00 in 10.0 mi Calm Calm - N/A   Clear
11:53 PM 43.0 °F - 37.9 °F 82% 30.02 in 10.0 mi Calm Calm - N/A   Clear